This demonstration page uses our WeatherBlox Daily Observations layout. Learn more.

Left ArrowRight Arrow

Hourly Observations for October 20, 2019

Temp ( °F °C ) Dew Point ( °F °C ) Humidity (%) Winds ( mph kmh ) Pressure ( in mb ) Visibility ( mi km ) Precip ( " mm )
12:53 am 00:53 Mostly Clear 59 15 46 7.8 62 62 Calm 29.83 1010 10 16 0.00 0.00
1:53 am 01:53 Mostly Cloudy 56 13.3 48 8.9 75 75 Calm 29.81 1010 10 16 0.00 0.00
2:53 am 02:53 Mostly Clear 49 9.4 47 8.3 93 93 Calm 29.82 1010 10 16 0.00 0.00
3:53 am 03:53 Clear 47 8.3 46 7.8 97 97 Calm 29.81 1010 10 16 0.00 0.00
4:53 am 04:53 Clear 47 8.3 45 7.2 93 93 E 3 6 29.80 1009 10 16 0.00 0.00
5:53 am 05:53 Mostly Cloudy 47 8.3 46 7.8 97 97 Calm 29.83 1010 10 16 0.00 0.00
6:53 am 06:53 Cloudy 50 10 47 8.3 89 89 Calm 29.85 1011 10 16 0.00 0.00
7:53 am 07:53 Cloudy 51 10.6 49 9.4 92 92 Calm 29.86 1011 10 16 0.00 0.00
8:53 am 08:53 Mostly Sunny 55 12.8 49 9.4 80 80 Calm 29.88 1012 10 16 0.00 0.00
9:53 am 09:53 Sunny 61 16.1 51 10.6 70 70 Calm 29.90 1013 10 16 0.00 0.00
10:53 am 10:53 Sunny 64 17.8 54 12.2 70 70 Calm 29.90 1013 10 16 0.00 0.00
11:53 am 11:53 Partly Cloudy 67 19.4 53 11.7 61 61 WNW 5 7 29.91 1013 10 16 0.00 0.00
12:53 pm 12:53 Sunny 71 21.7 53 11.7 53 53 Calm 29.90 1013 10 16 0.00 0.00
1:53 pm 13:53 Sunny 73 22.8 50 10 44 44 VRB 3 6 29.89 1012 10 16 0.00 0.00
2:53 pm 14:53 Sunny 75 23.9 51 10.6 43 43 Calm 29.88 1012 10 16 0.00 0.00
3:53 pm 15:53 Mostly Sunny 74 23.3 50 10 43 43 Calm 29.88 1012 10 16 0.00 0.00
4:53 pm 16:53 Mostly Sunny 75 23.9 51 10.6 43 43 WSW 6 9 29.88 1012 10 16 0.00 0.00
5:53 pm 17:53 Sunny 73 22.8 53 11.7 50 50 SW 3 6 29.88 1012 10 16 0.00 0.00
6:53 pm 18:53 Mostly Clear 63 17.2 54 12.2 73 73 Calm 29.89 1012 10 16 0.00 0.00
7:53 pm 19:53 Clear 58 14.4 52 11.1 81 81 Calm 29.91 1013 10 16 0.00 0.00
8:53 pm 20:53 Clear 59 15 53 11.7 81 81 Calm 29.93 1014 10 16 0.00 0.00
9:53 pm 21:53 Clear 60 15.6 55 12.8 84 84 E 3 6 29.95 1014 10 16 0.00 0.00
10:53 pm 22:53 Clear 61 16.1 57 13.9 87 87 Calm 29.96 1015 10 16 0.00 0.00
11:53 pm 23:53 Clear 58 14.4 56 13.3 93 93 E 3 6 29.95 1014 10 16 0.00 0.00

Powered by AerisWeather